This is the latest recevied weather packets stored in our database for station/object XE2OR-10. If no packets are shown the sender has not sent any weather packets the latest 10 day(s).
| Time | Temp. | Humidity | Pressure | Rain* | Wind** | Luminosity | Snow |
|---|---|---|---|---|---|---|---|
| 1778003329 | 30.56° C | 72% | 1012.2 hPa | 0 mm | - | 749 W/m² | - |
| 1778003032 | 31.11° C | 74% | 1012.5 hPa | 0 mm | - | 133 W/m² | - |
| 1778002729 | 30.56° C | 72% | 1012.6 hPa | 0 mm | - | 123 W/m² | - |
| 1778002429 | 30.56° C | 73% | 1012.4 hPa | 0 mm | - | 249 W/m² | - |
| 1778002129 | 30° C | 73% | 1012.7 hPa | 0 mm | - | 526 W/m² | - |
| 1778001832 | 30° C | 74% | 1012.8 hPa | 0 mm | - | 690 W/m² | - |
| 1778001529 | 29.44° C | 74% | 1012.8 hPa | 0 mm | - | 722 W/m² | - |
| 1778001233 | 29.44° C | 75% | 1012.7 hPa | 0 mm | - | 624 W/m² | - |
| 1778000929 | 29.44° C | 76% | 1012.8 hPa | 0 mm | - | 701 W/m² | - |
| 1778000629 | 28.89° C | 77% | 1012.9 hPa | 0 mm | - | 759 W/m² | - |
| 1778000329 | 28.33° C | 78% | 1012.6 hPa | 0 mm | - | 736 W/m² | - |
| 1778000033 | 28.89° C | 77% | 1012.8 hPa | 0 mm | - | 801 W/m² | - |
| 1777999729 | 28.89° C | 77% | 1012.7 hPa | 0 mm | - | 752 W/m² | - |
| 1777999433 | 28.33° C | 78% | 1012.5 hPa | 0 mm | - | 789 W/m² | - |
| 1777999129 | 28.89° C | 78% | 1012.7 hPa | 0 mm | - | 807 W/m² | - |
| 1777998829 | 27.78° C | 79% | 1012.5 hPa | 0 mm | - | 817 W/m² | - |
| 1777998529 | 28.89° C | 77% | 1012.5 hPa | 0 mm | - | 840 W/m² | - |
| 1777998232 | 28.89° C | 77% | 1012.5 hPa | 0 mm | - | 880 W/m² | - |
| 1777997929 | 27.78° C | 79% | 1012.6 hPa | 0 mm | - | 807 W/m² | - |
| 1777997632 | 28.33° C | 79% | 1012.6 hPa | 0 mm | - | 845 W/m² | - |
| 1777997329 | 27.78° C | 80% | 1012.5 hPa | 0 mm | - | 829 W/m² | - |
| 1777997028 | 27.78° C | 78% | 1012.3 hPa | 0 mm | - | 780 W/m² | - |
| 1777996729 | 27.78° C | 79% | 1012.5 hPa | 0 mm | - | 747 W/m² | - |
| 1777996432 | 27.78° C | 79% | 1012.5 hPa | 0 mm | - | 758 W/m² | - |
| 1777996129 | 27.78° C | 79% | 1012.5 hPa | 0 mm | - | 751 W/m² | - |
* Rain latest hour (hover to see other rain measurements)
** Current wind speed in m/s (hover to see current wind gust speed)